Flag for Japan Weather past 2 weeks in Kawasaki, Japan

Now
82 °F

Passing clouds.


Feels Like: 89 °F
Forecast: 80 / 86 °F
Wind: 20 mph from South

Location: Tokyo International Airport

Current Time: Aug 22, 2014 at 7:34:27 PM

Latest Report: Aug 22, 2014 at 7:00 PM


Visibility: N/A

Pressure: 29.80 "Hg

Humidity: 79%

Dew point: 75 °F

Location of KawasakiLocation

Historic Weather in Kawasaki — Graph

°F

Kawasaki temperature yesterday

Maximum temperature yesterday: 90 °F (at 10:00 AM)
Minimum temperature yesterday: 79 °F (at 2:00 AM)
Average temperature yesterday: 84 °F

Past Weeks' High & Low Weather Summary

 TemperatureHumidityPressure
High91 °F (Aug 19, 2:00 PM)100% (Aug 10, 2:30 AM)29.98 "Hg (Aug 10, 2:30 AM)
Low72 °F (Aug 10, 1:00 AM)52% (Aug 8, 2:30 PM)29.42 "Hg (Aug 10, 5:30 PM)
Average82 °F79%29.78 "Hg
* Reported Aug 7 6:00 PM — Aug 22 6:30 PM, Kawasaki, Weather by CustomWeather, © 2014

Note: Actual official high and low records may vary slightly from our data, if they occured in-between our weather recording intervals... More about our weather records

Advertising

Kawasaki weather history for previous 24 hours

 ConditionsComfort  
Time TempWeatherWind HumidityBarometerVisibility
6:30 PM
Aug 22
82 °FPassing clouds.22 mph79%29.80 "HgN/A
6:00 PM84 °FPassing clouds.20 mph79%29.77 "HgN/A
5:30 PM84 °FScattered clouds.17 mph79%29.77 "HgN/A
5:00 PM84 °FBroken clouds.17 mph79%29.80 "HgN/A
4:30 PM84 °FPartly sunny.20 mph79%29.80 "HgN/A
4:00 PM86 °FScattered clouds.21 mph75%29.80 "HgN/A
3:30 PM86 °FScattered clouds.20 mph75%29.80 "HgN/A
3:00 PM88 °FScattered clouds.20 mph66%29.80 "HgN/A
2:30 PM90 °FPassing clouds.17 mph67%29.80 "HgN/A
2:00 PM90 °FPassing clouds.17 mph67%29.80 "HgN/A
1:30 PM90 °FPassing clouds.18 mph63%29.83 "HgN/A
1:00 PM91 °FPassing clouds.17 mph63%29.83 "HgN/A
12:30 PM91 °FPassing clouds.17 mph59%29.83 "HgN/A
12:00 PM90 °FPassing clouds.17 mph59%29.86 "HgN/A
11:30 AM90 °FPassing clouds.15 mph63%29.86 "HgN/A
11:00 AM90 °FPassing clouds.18 mph63%29.86 "HgN/A
10:30 AM90 °FPassing clouds.18 mph59%29.86 "HgN/A
10:00 AM88 °FPassing clouds.16 mph66%29.89 "HgN/A
9:30 AM88 °FPassing clouds.16 mph66%29.89 "HgN/A
9:00 AM88 °FScattered clouds.13 mph66%29.86 "HgN/A
8:30 AM86 °FPassing clouds.12 mph75%29.86 "HgN/A
8:00 AM86 °FPassing clouds.8 mph75%29.86 "HgN/A
7:30 AM86 °FPassing clouds.8 mph75%29.86 "HgN/A
7:00 AM84 °FPassing clouds.5 mph79%29.86 "HgN/A
6:30 AM82 °FPassing clouds.6 mph79%29.89 "HgN/A
6:00 AM82 °FPassing clouds.3 mph84%29.89 "HgN/A
5:30 AM79 °FPassing clouds.2 mph89%29.89 "HgN/A
5:00 AM81 °FPassing clouds.7 mph84%29.89 "HgN/A
4:30 AM81 °FPassing clouds.3 mph84%29.89 "HgN/A
4:00 AM81 °FPassing clouds.3 mph89%29.89 "HgN/A
3:30 AM81 °FPassing clouds.6 mph84%29.89 "HgN/A
3:00 AM81 °FPassing clouds.6 mph84%29.89 "HgN/A
2:30 AM81 °FPassing clouds.6 mph89%29.86 "HgN/A
2:00 AM81 °FPassing clouds.7 mph89%29.86 "HgN/A
1:30 AM81 °FPassing clouds.3 mph84%29.86 "HgN/A
1:00 AM81 °FClear.6 mph84%29.86 "Hg10 mi
12:30 AM81 °FClear.12 mph84%29.86 "Hg10 mi
12:00 AM81 °FClear.12 mph84%29.89 "Hg10 mi
11:30 PM
Aug 21
82 °FClear.10 mph79%29.89 "Hg10 mi
11:00 PM81 °FClear.9 mph84%29.89 "Hg10 mi
10:30 PM81 °FClear.8 mph84%29.89 "Hg10 mi
10:00 PM81 °FClear.9 mph89%29.89 "Hg10 mi
9:30 PM81 °FPassing clouds.8 mph89%29.89 "HgN/A
9:00 PM82 °FPassing clouds.8 mph79%29.89 "HgN/A
8:30 PM82 °FPassing clouds.8 mph84%29.86 "HgN/A
8:00 PM82 °FPassing clouds.8 mph84%29.86 "HgN/A
7:30 PM84 °FPassing clouds.9 mph79%29.86 "HgN/A
7:00 PM84 °FPassing clouds.12 mph74%29.86 "HgN/A
Weather by CustomWeather, © 2014

See weather overviewHow to use our weather pages